This is the latest recevied weather packets stored in our database for station/object WW3TRG. If no packets are shown the sender has not sent any weather packets the latest 1 day(s).
| Time | Temp. | Humidity | Pressure | Rain* | Wind** | Luminosity | Snow |
|---|---|---|---|---|---|---|---|
| 1778065705 | 16.67° C | 88% | 1007.7 hPa | 0 mm | - | 17 W/m² | - |
| 1778065402 | 17.22° C | 87% | 1007.3 hPa | 0 mm | - | 18 W/m² | - |
| 1778065099 | 16.67° C | 87% | 1007.7 hPa | 0 mm | - | 18 W/m² | - |
| 1778064795 | 16.67° C | 89% | 1007.3 hPa | 0 mm | - | 22 W/m² | - |
| 1778064493 | 15.56° C | 92% | 1007.3 hPa | 0 mm | - | 26 W/m² | - |
| 1778063888 | 15° C | 94% | 1007.2 hPa | 0 mm | - | 31 W/m² | - |
| 1778061468 | 13.89° C | 94% | 1007.2 hPa | 0 mm | - | 0 W/m² | - |
| 1778061164 | 13.89° C | 94% | 1007.3 hPa | 0 mm | - | 0 W/m² | - |
| 1778059954 | 13.89° C | 93% | 1007.1 hPa | 0 mm | - | 0 W/m² | - |
| 1778059652 | 13.89° C | 93% | 1007.2 hPa | 0 mm | - | 0 W/m² | - |
| 1778059350 | 13.89° C | 94% | 1007 hPa | 0 mm | - | 0 W/m² | - |
| 1778059047 | 13.89° C | 94% | 1007.4 hPa | 0 mm | - | 0 W/m² | - |
| 1778058744 | 13.33° C | 94% | 1007.2 hPa | 0 mm | - | 0 W/m² | - |
| 1778057532 | 13.33° C | 94% | 1007.1 hPa | 0 mm | - | 0 W/m² | - |
| 1778056622 | 13.33° C | 93% | 1007.4 hPa | 0 mm | - | 0 W/m² | - |
| 1778056017 | 13.33° C | 94% | 1007.4 hPa | 0 mm | - | 0 W/m² | - |
| 1778055415 | 13.89° C | 93% | 1007.3 hPa | 0 mm | - | 0 W/m² | - |
| 1778055112 | 13.33° C | 93% | 1007.5 hPa | 0 mm | - | 0 W/m² | - |
| 1778054810 | 13.89° C | 93% | 1007.3 hPa | 0 mm | - | 0 W/m² | - |
| 1778053599 | 13.89° C | 92% | 1007.3 hPa | 0 mm | - | 0 W/m² | - |
| 1778053296 | 13.89° C | 92% | 1007.6 hPa | 0 mm | - | 0 W/m² | - |
| 1778052387 | 13.89° C | 92% | 1007.7 hPa | 0 mm | - | 0 W/m² | - |
| 1778052085 | 13.89° C | 91% | 1007.6 hPa | 0 mm | - | 0 W/m² | - |
| 1778051480 | 14.44° C | 90% | 1007.7 hPa | 0 mm | - | 0 W/m² | - |
| 1778051177 | 14.44° C | 90% | 1007.5 hPa | 0 mm | - | 0 W/m² | - |
* Rain latest hour (hover to see other rain measurements)
** Current wind speed in m/s (hover to see current wind gust speed)